User: anonymous   Login
Location: Ostrava
(49.8330°N, 18.2830°E)
Time: 01:05:55
(UTC+02:00)
Language:

Cosmos 2221 - Orbit

View from above orbital plane
View from above orbital plane
View from above satellite
View from above satellite

Ground track
Ground track

The orbit data is extracted from the following two-line orbital elements,

1 22236U 92080A   16124.41560205  .00000528  00000-0  55686-4 0  9990
2 22236  82.5078  86.1461 0015225 280.6192  79.3310 14.87365891266409
Epoch (UTC): 03 May 2016 09:58:28
Eccentricity: 0.0015225
inclination: 82.5078°
perigee height: 595 km
apogee height: 617 km
right ascension of ascending node: 86.1461°
argument of perigee: 280.6192°
revolutions per day: 14.87365891
mean anomaly at epoch: 79.3310°
orbit number at epoch: 26640

The dashed part of the orbit path shows where the satellite is in the earth's shadow,  

DLR